Weather Roundup
Issued by NWS

Home | Current Version | Previous Version | Graphics & Text | Print | Product List | Glossary Off
Versions: 1 2 3 4 5 6 7 8 9 10 11 12 13 14 15 16 17 18 19 20 21 22 23 24 25 26 27 28 29 30 31 32 33 34 35 36 37 38 39 40 41 42 43 44 45 46 47 48 49 50

000
NZUS93 KARX 211459
HRRWXR

CURRENT HOURLY OBSERVATIONS ACROSS
MUCH OF THE UPPER MISSISSIPPI VALLEY
NATIONAL WEATHER SERVICE LA CROSSE WI
900 AM CST SUN DEC 21 2014


...SOUTHEAST MINNESOTA...


CITY           SKY/WX    TMP DP  RH WIND       PRES   REMARKS
ROCHESTER      FOG       33  33 100 S16       29.91F VSB 1/4 WCI  23
ROCHESTER/MAYO CLOUDY    33  33  99 SE8G17    29.92S VSB 3/4 WCI  26
WINONA         CLOUDY    36  34  93 SE7       29.97F FOG     WCI  30
AUSTIN         FOG       34  34 100 S12G18    29.90S VSB 3/4 WCI  25
ALBERT LEA     FOG       36  36 100 S12G20    29.88S VSB 1/4 WCI  27
DODGE CENTER   FOG       34  34 100 S16       29.89S VSB 1/4 WCI  23
PRESTON        FOG       33  32  99 S15G22    29.93F VSB 1/4 WCI  22
OWATONNA       DRIZZLE   34  34 100 S12G18    29.88F WCI  25
FARIBAULT      LGT RAIN  36  34  93 SE13      29.88F WCI  27
$$

...ELSEWHERE IN MINNESOTA...


CITY           SKY/WX    TMP DP  RH WIND       PRES   REMARKS
MINNEAPOLIS    LGT RAIN  34  32  92 S14       29.88F FOG     WCI  25
INTNL FALLS    CLOUDY    29  26  89 VRB5      29.79F FOG     WCI  24
DULUTH         FRZ DRZL  30  27  88 S12       29.87S FOG     WCI  20
RED WING       CLOUDY    34  34 100 SE8       29.92F FOG     WCI  27
REDWOOD FALLS  FOG       33  33 100 SE10      29.81F VSB 1/4 WCI  25
MANKATO        CLOUDY    36  30  80 S14       29.85F VSB 1/2 WCI  27
WORTHINGTON    CLOUDY    34 -15  12 S12       29.79S VSB 1/2 WCI  25
FAIRMONT       CLOUDY    36  32  87 S17       29.82F WCI  25
$$

...SOUTHWEST WISCONSIN...


CITY           SKY/WX    TMP DP  RH WIND       PRES   REMARKS
LA CROSSE      CLOUDY    36  33  89 S12       29.99F FOG     WCI  28
PRAIRIE DU CHI CLOUDY    36  33  89 SE6       30.04S FOG     WCI  31
BOSCOBEL       CLOUDY    37  33  85 MISG      30.06S FOG
LONE ROCK      CLOUDY    37  32  81 SE9       30.08S HAZE    WCI  31
PLATTEVILLE    CLOUDY    34  33  97 S14       30.07F WCI  24
FORT MC COY    CLOUDY    33  32  96 SE8       30.03F FOG     WCI  26
VIROQUA        CLOUDY    32  32 100 SE12      30.00F VSB<1/4 WCI  23
WIS DELLS      NOT AVBL
$$

...ELSEWHERE IN WISCONSIN...


CITY           SKY/WX    TMP DP  RH WIND       PRES   REMARKS
MILWAUKEE      CLOUDY    33  27  78 S7        30.17S WCI  27
MADISON        CLOUDY    33  30  88 S14       30.10S FOG     WCI  23
GREEN BAY      CLOUDY    32  28  85 S8        30.12F FOG     WCI  25
EAU CLAIRE     NOT AVBL
BLACK RVR FLS  CLOUDY    33  31  96 SE5       30.01F FOG     WCI  28
MEDFORD        FOG       28  28  97 SE9G18    29.98F VSB 1   WCI  19
WAUSAU         CLOUDY    29  28  96 SE9       30.03R FOG     WCI  20
WIS RAPIDS     CLOUDY    31  28  89 S8        30.06S FOG     WCI  23
MARSHFIELD     CLOUDY    31  28  89 S9        30.02S FOG     WCI  23
RICE LAKE      CLOUDY    31  30  96 SE10      29.95F FOG     WCI  22
$$

...NORTHEAST IOWA...


CITY           SKY/WX    TMP DP  RH WIND       PRES   REMARKS
DECORAH        CLOUDY    34  34 100 S12       29.97F FOG     WCI  25
MASON CITY     CLOUDY    35  35 100 S17       29.91F FOG     WCI  25
CHARLES CITY   CLOUDY    36  36 100 S17       29.94F FOG     WCI  25
OELWEIN        CLOUDY    36  36 100 S15       29.99F FOG     WCI  26
$$

...ELSEWHERE IN IOWA...


CITY           SKY/WX    TMP DP  RH WIND       PRES   REMARKS
DES MOINES     CLOUDY    39  34  82 S18G26    29.96F WCI  30
IOWA CITY      CLOUDY    38  35  89 S14       30.08F WCI  30
FORT DODGE     CLOUDY    36  34  93 S12G17    29.88F WCI  27
$$

...NORTHERN ILLINOIS...


CITY           SKY/WX    TMP DP  RH WIND       PRES   REMARKS
CHICAGO-OHARE  CLOUDY    33  27  78 S12       30.19F WCI  24
CHICAGO-MIDWAY CLOUDY    34  27  75 S8G17     30.21F WCI  27
MOLINE         CLOUDY    37  33  85 S9        30.11F WCI  30
ROCKFORD       CLOUDY    33  29  85 S10       30.17S FOG     WCI  25
PEORIA         CLOUDY    37  31  78 S10       30.18S HAZE    WCI  30
$$

NOTE: "FAIR" INDICATES FEW OR NO CLOUDS BELOW 12,000 FEET WITH NO
SIGNIFICANT WEATHER AND/OR OBSTRUCTIONS TO VISIBILITY. WIND
SPEEDS ARE IN MILES-PER-HOUR.



USA.gov is the U.S. government's official web portal to all federal, state and local government web resources and services.